Погода в Александровском

Россия / Курская область     51°44′26″N   37°53′25″E
темп.,
°C
ветер,
м/с
пор.,
м/с
влажн.,
%
обл.,
%
осадки,
мм/ч
давл.,
гПа
погр.,
м
27 января, ср
ср2700:00+1ю71498100 3.6 1010541
03:00+2ю71597100 5.8 1010501
06:00+2ю4999100 0.5 1010226
09:00+1ю3799100 1.1 1009202
12:00+1юв4899100 1.6 1009265
15:00+1юв5999100 4.8 1008315
18:00+1ююв51098100 0.3 1008293
21:00+2юв51197100 1.7 1006317
28 января, чт
чт2800:00+1юв61196100 0.6 1006363
03:00+1юв61395100 0.9 1005489
06:00+1юв71394100 0.2 1004405
09:00+1юв61294100 0.3 1004400
12:00+1юв71294100 0.1 1004464
15:00+1ююв61192100 0.1 1004530
18:00+1ююв61193100 0.0 1005478
21:00+1юв51096100 0.1 1004320
29 января, пт
пт2900:00+1ююв61097100 0.2 1004329
03:00+1ююз5998100 0.6 1004364
06:000ю6118987 0.0 1003523
09:00−1ю7138852 0.0 1002808
12:00+1ю81479100 0.1 10011323
15:00+1ю10158399 0.3 9981230
18:00−1ююз8129499 0.6 997873
21:00−1юз8128399 0.9 9981083
30 января, сб
сб3000:00−2юз81394100 1.3 998926
03:00−2з71279100 3.3 9981006
06:00−4юз5118551 0.0 998621
09:00−4юз5118651 0.0 1000567
12:00−2юз5883100 0.0 1001642
15:00−1ю5981100 0.0 1000711
18:00−1юв71397100 1.0 998505
21:00+2ю91897100 3.4 994770
31 января, вс
вс3100:00+2ю112097100 2.7 992866
03:00+2ююз101897100 6.1 991834
06:000юз9138898 1.0 992873
09:00−3зюз8128399 1.1 996890
12:00−2зюз8127997 0.1 1000958
15:00−2зюз8117795 0.1 10021060
18:00−3юз81279100 0.1 10051060
21:00−3зюз71283100 0.1 1007969